Hinckley, MN

8:28 AM CST on December 13, 2019 (GMT -0600)
Hinckley

Weather History for K04W - October, 2019

Change the Weather History Date:

Thursday, October 24, 2019

  Actual Average (KJMR) Record (KJMR)
Temperature  
Mean Temperature 34 °F -  
Max Temperature 42 °F 54 °F 79 °F (1989)
Min Temperature 26 °F 30 °F 16 °F (1936)
Degree Days  
Heating Degree Days 31    
Moisture  
Dew Point 28 °F    
Average Humidity 76    
Maximum Humidity 100    
Minimum Humidity 49    
Precipitation  
Precipitation 0.00 in - - ()
Sea Level Pressure  
Sea Level Pressure 30.25 in    
Wind  
Wind Speed 5 mph (West)    
Max Wind Speed 10 mph    
Max Gust Speed -    
Visibility 10 miles    
Events      
Averages and records for this station are not official NWS values.
T = Trace of Precipitation, MM = Missing Value Source: NWS Daily Summary

Daily Weather History Graph

Daily Weather History Graph

Search for Another Location

Airport or City:

Astronomy

Oct. 24, 2019 Rise Set
Actual Time 7:40 AM CDT 6:10 PM CDT
Civil Twilight 7:09 AM CDT 6:40 PM CDT
Nautical Twilight 6:35 AM CDT 7:15 PM CDT
Astronomical Twilight 6:00 AM CDT 7:50 PM CDT
Moon 2:51 AM CDT (10/24) 4:55 PM CDT (10/24)
Length of Visible Light 11h 30m
Length of Day
10h 29m
Waning Crescent, 16% of the Moon is Illuminated
Oct 24
Waning Crescent
Oct 27
New
Nov 4
First Quarter
Nov 12
Full
Nov 19
Last Quarter

Hourly Weather History & Observations

Time (CDT) Temp. Windchill Dew Point Humidity Pressure Visibility Wind Dir Wind Speed Gust Speed Precip Events Conditions
12:15 AM 37.4 °F 32.1 °F 32.0 °F 81% 30.11 in 10.0 mi WNW 6.9 mph - N/A   Light Drizzle
12:16 AM 37.4 °F 32.1 °F 32.0 °F 81% 30.11 in 10.0 mi WNW 6.9 mph - N/A   Light Drizzle
12:38 AM 37.4 °F 32.1 °F 32.0 °F 81% 30.12 in 10.0 mi WNW 6.9 mph - N/A   Overcast
12:57 AM 37.4 °F 33.8 °F 32.0 °F 81% 30.13 in 10.0 mi WNW 4.6 mph - N/A   Overcast
1:16 AM 37.4 °F 32.1 °F 32.0 °F 81% 30.13 in 10.0 mi WNW 6.9 mph - N/A   Overcast
1:35 AM 37.4 °F 32.8 °F 32.0 °F 81% 30.13 in 10.0 mi West 5.8 mph - N/A   Overcast
1:55 AM 37.4 °F 32.8 °F 32.0 °F 81% 30.14 in 10.0 mi WNW 5.8 mph - N/A   Overcast
2:00 AM 37.4 °F 34.9 °F 32.0 °F 81% 30.14 in 10.0 mi WNW 3.5 mph - N/A   Overcast
2:17 AM 37.4 °F 32.1 °F 32.0 °F 81% 30.14 in 10.0 mi WNW 6.9 mph - N/A   Overcast
2:36 AM 37.4 °F 32.8 °F 32.0 °F 81% 30.14 in 10.0 mi WNW 5.8 mph - N/A   Overcast
2:55 AM 35.6 °F 31.7 °F 32.0 °F 87% 30.15 in 10.0 mi WNW 4.6 mph - N/A   Overcast
2:56 AM 35.6 °F 31.7 °F 32.0 °F 87% 30.15 in 10.0 mi WNW 4.6 mph - N/A   Overcast
3:38 AM 35.6 °F 32.8 °F 32.0 °F 87% 30.16 in 10.0 mi West 3.5 mph - N/A   Overcast
3:56 AM 35.6 °F 31.7 °F 32.0 °F 87% 30.16 in 10.0 mi West 4.6 mph - N/A   Overcast
4:16 AM 35.6 °F 32.8 °F 32.0 °F 87% 30.16 in 10.0 mi West 3.5 mph - N/A   Overcast
4:35 AM 35.6 °F 31.7 °F 32.0 °F 87% 30.17 in 10.0 mi West 4.6 mph - N/A   Overcast
4:36 AM 35.6 °F 31.7 °F 32.0 °F 87% 30.17 in 10.0 mi West 4.6 mph - N/A   Overcast
4:55 AM 35.6 °F 32.8 °F 32.0 °F 87% 30.18 in 10.0 mi WSW 3.5 mph - N/A   Overcast
4:59 AM 35.6 °F 30.7 °F 32.0 °F 87% 30.18 in 10.0 mi WSW 5.8 mph - N/A   Overcast
5:35 AM 35.6 °F 31.7 °F 32.0 °F 87% 30.19 in 10.0 mi West 4.6 mph - N/A   Overcast
5:55 AM 35.6 °F 32.8 °F 32.0 °F 87% 30.19 in 10.0 mi West 3.5 mph - N/A   Overcast
5:56 AM 35.6 °F 31.7 °F 32.0 °F 87% 30.20 in 10.0 mi West 4.6 mph - N/A   Overcast
6:15 AM 35.6 °F 31.7 °F 32.0 °F 87% 30.20 in 10.0 mi West 4.6 mph - N/A   Overcast
6:16 AM 35.6 °F 31.7 °F 32.0 °F 87% 30.20 in 10.0 mi West 4.6 mph - N/A   Overcast
6:38 AM 35.6 °F 29.9 °F 32.0 °F 87% 30.22 in 10.0 mi West 6.9 mph - N/A   Overcast
6:56 AM 35.6 °F 29.9 °F 30.2 °F 81% 30.22 in 10.0 mi West 6.9 mph - N/A   Overcast
7:16 AM 35.6 °F 30.7 °F 30.2 °F 81% 30.23 in 10.0 mi West 5.8 mph - N/A   Overcast
7:35 AM 33.8 °F 27.7 °F 30.2 °F 87% 30.23 in 10.0 mi West 6.9 mph - N/A   Overcast
7:36 AM 33.8 °F 27.7 °F 30.2 °F 87% 30.23 in 10.0 mi West 6.9 mph - N/A   Overcast
7:55 AM 33.8 °F 28.6 °F 30.2 °F 87% 30.24 in 10.0 mi West 5.8 mph - N/A   Overcast
7:59 AM 33.8 °F 29.6 °F 28.4 °F 81% 30.24 in 10.0 mi West 4.6 mph - N/A   Overcast
8:17 AM 33.8 °F 30.8 °F 28.4 °F 81% 30.24 in 10.0 mi West 3.5 mph - N/A   Overcast
8:36 AM 33.8 °F 29.6 °F 30.2 °F 87% 30.25 in 10.0 mi West 4.6 mph - N/A   Overcast
8:55 AM 35.6 °F 30.7 °F 30.2 °F 81% 30.25 in 10.0 mi WSW 5.8 mph - N/A   Overcast
9:15 AM 35.6 °F 30.7 °F 30.2 °F 81% 30.27 in 10.0 mi WSW 5.8 mph - N/A   Overcast
9:19 AM 35.6 °F 30.7 °F 30.2 °F 81% 30.27 in 10.0 mi WSW 5.8 mph - N/A   Overcast
9:37 AM 35.6 °F 29.9 °F 30.2 °F 81% 30.28 in 10.0 mi WSW 6.9 mph - N/A   Overcast
9:55 AM 35.6 °F 31.7 °F 30.2 °F 81% 30.28 in 10.0 mi West 4.6 mph - N/A   Overcast
10:15 AM 35.6 °F 30.7 °F 30.2 °F 81% 30.28 in 10.0 mi West 5.8 mph - N/A   Overcast
10:16 AM 35.6 °F 30.7 °F 30.2 °F 81% 30.28 in 10.0 mi West 5.8 mph - N/A   Overcast
10:35 AM 37.4 °F 32.1 °F 26.6 °F 65% 30.29 in 10.0 mi NW 6.9 mph - N/A   Overcast
10:58 AM 37.4 °F 33.8 °F 26.6 °F 65% 30.30 in 10.0 mi West 4.6 mph - N/A   Overcast
11:16 AM 37.4 °F 31.4 °F 26.6 °F 65% 30.31 in 10.0 mi West 8.1 mph - N/A   Overcast
11:36 AM 37.4 °F 31.4 °F 24.8 °F 60% 30.30 in 10.0 mi NW 8.1 mph - N/A   Overcast
11:55 AM 39.2 °F 35.0 °F 26.6 °F 61% 30.31 in 10.0 mi NW 5.8 mph - N/A   Overcast
11:56 AM 39.2 °F 35.9 °F 24.8 °F 56% 30.31 in 10.0 mi WNW 4.6 mph - N/A   Overcast
12:15 PM 41.0 °F 35.8 °F 23.0 °F 49% 30.31 in 10.0 mi NW 8.1 mph - N/A   Overcast
1:16 PM 41.0 °F 35.8 °F 26.6 °F 57% 30.30 in 10.0 mi WNW 8.1 mph - N/A   Overcast
1:35 PM 42.8 °F 39.3 °F 26.6 °F 53% 30.29 in 10.0 mi NNW 5.8 mph - N/A   Overcast
1:59 PM 41.0 °F 39.0 °F 26.6 °F 57% 30.29 in 10.0 mi NNW 3.5 mph - N/A   Mostly Cloudy
2:16 PM 41.0 °F 35.8 °F 26.6 °F 57% 30.28 in 10.0 mi NW 8.1 mph - N/A   Overcast
2:35 PM 41.0 °F 39.0 °F 26.6 °F 57% 30.29 in 10.0 mi West 3.5 mph - N/A   Mostly Cloudy
2:55 PM 42.8 °F 38.6 °F 26.6 °F 53% 30.29 in 10.0 mi West 6.9 mph - N/A   Mostly Cloudy
2:56 PM 42.8 °F 38.6 °F 26.6 °F 53% 30.29 in 10.0 mi West 6.9 mph - N/A   Mostly Cloudy
3:15 PM 42.8 °F 39.3 °F 26.6 °F 53% 30.29 in 10.0 mi NW 5.8 mph - N/A   Overcast
3:19 PM 42.8 °F 39.3 °F 26.6 °F 53% 30.29 in 10.0 mi NW 5.8 mph - N/A   Overcast
3:37 PM 42.8 °F 37.5 °F 26.6 °F 53% 30.29 in 10.0 mi West 9.2 mph - N/A   Overcast
3:56 PM 42.8 °F 40.1 °F 26.6 °F 53% 30.28 in 10.0 mi NW 4.6 mph - N/A   Overcast
4:15 PM 42.8 °F 41.1 °F 26.6 °F 53% 30.29 in 10.0 mi WNW 3.5 mph - N/A   Mostly Cloudy
4:16 PM 42.8 °F 41.1 °F 26.6 °F 53% 30.29 in 10.0 mi West 3.5 mph - N/A   Mostly Cloudy
4:35 PM 42.8 °F 39.3 °F 26.6 °F 53% 30.28 in 10.0 mi WSW 5.8 mph - N/A   Mostly Cloudy
4:36 PM 42.8 °F 38.6 °F 26.6 °F 53% 30.28 in 10.0 mi West 6.9 mph - N/A   Mostly Cloudy
4:59 PM 42.8 °F 37.0 °F 24.8 °F 49% 30.29 in 10.0 mi West 10.4 mph - N/A   Mostly Cloudy
5:16 PM 41.0 °F 37.1 °F 23.0 °F 49% 30.28 in 10.0 mi West 5.8 mph - N/A   Scattered Clouds
5:36 PM 41.0 °F 37.1 °F 23.0 °F 49% 30.29 in 10.0 mi WNW 5.8 mph - N/A   Clear
5:55 PM 41.0 °F 37.1 °F 23.0 °F 49% 30.29 in 10.0 mi West 5.8 mph - N/A   Clear
5:56 PM 41.0 °F 38.0 °F 23.0 °F 49% 30.29 in 10.0 mi West 4.6 mph - N/A   Clear
6:15 PM 37.4 °F 33.8 °F 23.0 °F 56% 30.29 in 10.0 mi West 4.6 mph - N/A   Clear
6:20 PM 37.4 °F 34.9 °F 23.0 °F 56% 30.29 in 10.0 mi West 3.5 mph - N/A   Clear
6:37 PM 37.4 °F - 23.0 °F 56% 30.29 in 10.0 mi Calm Calm - N/A   Clear
6:56 PM 35.6 °F - 23.0 °F 60% 30.29 in 10.0 mi Calm Calm - N/A   Clear
7:15 PM 33.8 °F - 26.6 °F 75% 30.29 in 10.0 mi Calm Calm - N/A   Clear
7:35 PM 32.0 °F - 28.4 °F 87% 30.29 in 10.0 mi Calm Calm - N/A   Clear
7:36 PM 32.0 °F - 28.4 °F 87% 30.29 in 10.0 mi Calm Calm - N/A   Clear
7:58 PM 30.2 °F - 26.6 °F 86% 30.29 in 10.0 mi Calm Calm - N/A   Clear
8:36 PM 30.2 °F - 28.4 °F 93% 30.30 in 10.0 mi Calm Calm - N/A   Clear
8:55 PM 30.2 °F - 28.4 °F 93% 30.31 in 10.0 mi Calm Calm - N/A   Clear
8:56 PM 30.2 °F - 28.4 °F 93% 30.31 in 10.0 mi Calm Calm - N/A   Clear
9:15 PM 28.4 °F - 26.6 °F 93% 30.31 in 10.0 mi Calm Calm - N/A   Clear
9:19 PM 28.4 °F - 26.6 °F 93% 30.31 in 10.0 mi Calm Calm - N/A   Clear
9:38 PM 28.4 °F - 26.6 °F 93% 30.32 in 10.0 mi Calm Calm - N/A   Clear
9:55 PM 28.4 °F - 28.4 °F 100% 30.32 in 10.0 mi Calm Calm - N/A   Clear
10:15 PM 28.4 °F - 26.6 °F 93% 30.32 in 10.0 mi Calm Calm - N/A   Clear
10:16 PM 28.4 °F - 26.6 °F 93% 30.32 in 10.0 mi Calm Calm - N/A   Clear
10:35 PM 28.4 °F - 26.6 °F 93% 30.32 in 10.0 mi Calm Calm - N/A   Clear
10:36 PM 28.4 °F - 26.6 °F 93% 30.32 in 10.0 mi Calm Calm - N/A   Clear
11:16 PM 26.6 °F - 26.6 °F 100% 30.31 in 10.0 mi Calm Calm - N/A   Clear
11:36 PM 26.6 °F - 26.6 °F 100% 30.31 in 10.0 mi Calm Calm - N/A   Clear
11:55 PM 26.6 °F - 26.6 °F 100% 30.31 in 10.0 mi Calm Calm - N/A   Clear
11:56 PM 26.6 °F - 26.6 °F 100% 30.31 in 10.0 mi Calm Calm - N/A   Clear